Regional Weather Roundup
Issued by NWS

Home | Current Version | Previous Version | Text Only | Print | Product List | Glossary Off
Versions: 1 2 3 4 5 6 7 8 9 10 11 12 13 14 15 16 17 18 19 20 21 22 23 24 25 26 27 28 29 30 31 32 33 34 35 36 37 38 39 40 41 42 43 44 45 46 47 48 49 50

000
ASUS43 KFSD 201102
RWRSD

WEATHER ROUNDUP FOR SOUTH DAKOTA
NATIONAL WEATHER SERVICE SIOUX FALLS SD
600 AM CDT SAT SEP 20 2014

NOTE: "FAIR" INDICATES FEW OR NO CLOUDS BELOW 12,000 FEET WITH NO
SIGNIFICANT WEATHER AND/OR OBSTRUCTIONS TO VISIBILITY.


SDZ001>005-009-010-012>017-201200-
NORTHWEST AND NORTH CENTRAL SOUTH DAKOTA

CITY           SKY/WX    TMP DP  RH WIND       PRES   REMARKS
MOBRIDGE       CLEAR     52  51  97 CALM      29.88R
$$

SDZ012>016-024>037-041>051-057-063-072>074-201200-
SOUTHWEST AND SOUTH CENTRAL SOUTH DAKOTA

CITY           SKY/WX    TMP DP  RH WIND       PRES   REMARKS
RAPID CTY ARPT PTCLDY    55  46  71 NW5       30.03R
PIERRE         CLEAR     57  52  83 SW7       29.91R
CUSTER         PTCLDY    50  39  66 S5        30.15R
ELLSWORTH AFB  CLEAR     55  46  73 NW8       30.02R
PHILIP         CLEAR     57  50  77 W8        29.96S
PINE RIDGE     CLEAR     49  46  90 CALM      30.05R
WINNER         FAIR      61  55  81 W10       29.94R
$$

SDZ004>011-016>023-039-040-201200-
NORTHEAST SOUTH DAKOTA

CITY           SKY/WX    TMP DP  RH WIND       PRES   REMARKS
ABERDEEN       CLEAR     52  50  93 CALM      29.86R
WATERTOWN      CLEAR     56  53  90 NW5       29.86R
SISSETON         N/A     57  56  96 NW6       29.82R
$$

SDZ017-020-022-023-036>040-048>070-201200-
SOUTHEAST SOUTH DAKOTA

CITY           SKY/WX    TMP DP  RH WIND       PRES   REMARKS
SIOUX FALLS    CLOUDY    64  57  78 NW10      29.86R
HURON          PTCLDY    53  50  89 NW6       29.87R
CHAMBERLAIN    PTCLDY    58  54  86 CALM      29.91S
MITCHELL       CLOUDY    62  58  86 W6        29.89R
YANKTON        CLOUDY    64  57  77 W8        29.89R
$$

ABBREVIATIONS USED IN REMARKS
   TC - TEMPERATURE IN CELSIUS
  WCI - WIND CHILL INDEX
   HX - HEAT INDEX
  VSB - VISIBILITY




USA.gov is the U.S. government's official web portal to all federal, state and local government web resources and services.